• In Hungary
  • List of Countries
  • For 7 days
  • Water Temperature
  • Satellite Maps
  • Weather Map
  • News
  • Weather Widgets
  • user-avatar
    Login

    Hourly Weather Zabreh

    Today, 21 September, Friday

    Time Temperature Precipitation Wind Pressure Humidity
    00:00 +18°C° 0 mm 2 mps 736 mmHg 80%
    01:00 +17°C° 0 mm 2 mps 736 mmHg 80%
    02:00 +17°C° 0 mm 2 mps 736 mmHg 80%
    03:00 +17°C° 0 mm 2 mps 736 mmHg 81%
    04:00 +16°C° 0 mm 2 mps 735 mmHg 81%
    05:00 +17°C° 0 mm 2 mps 735 mmHg 79%
    06:00 +17°C° 0 mm 2 mps 735 mmHg 77%
    07:00 +17°C° 0 mm 2 mps 735 mmHg 75%
    08:00 +19°C° 0 mm 3 mps 735 mmHg 68%
    09:00 +21°C° 0 mm 4 mps 735 mmHg 61%
    10:00 +23°C° 0 mm 5 mps 734 mmHg 54%
    11:00 +25°C° 0 mm 5 mps 734 mmHg 52%
    12:00 +26°C° 0 mm 6 mps 734 mmHg 50%
    13:00 +27°C° 0 mm 6 mps 733 mmHg 49%
    14:00 +26°C° 0 mm 5 mps 733 mmHg 50%
    15:00 +26°C° 0 mm 5 mps 732 mmHg 51%
    16:00 +26°C° 0 mm 4 mps 732 mmHg 53%
    17:00 +23°C° 0 mm 4 mps 732 mmHg 57%
    18:00 +22°C° 0 mm 4 mps 732 mmHg 61%
    19:00 +20°C° 0 mm 3 mps 731 mmHg 65%
    20:00 +20°C° 0.3 mm 3 mps 732 mmHg 69%
    21:00 +20°C° 0.3 mm 3 mps 732 mmHg 72%
    22:00 +19°C° 0.3 mm 3 mps 733 mmHg 76%
    23:00 +18°C° 1 mm 4 mps 734 mmHg 80%

    Tomorrow, 22 September, Saturday

    Time Temperature Precipitation Wind Pressure Humidity
    00:00 +17°C° 1 mm 4 mps 734 mmHg 84%
    01:00 +15°C° 1 mm 5 mps 735 mmHg 88%
    02:00 +14°C° 0.8 mm 4 mps 736 mmHg 87%
    03:00 +13°C° 0.8 mm 3 mps 736 mmHg 86%
    04:00 +13°C° 0.8 mm 2 mps 737 mmHg 85%
    05:00 +13°C° 0.1 mm 2 mps 738 mmHg 84%
    06:00 +13°C° 0.1 mm 2 mps 738 mmHg 83%
    07:00 +13°C° 0.1 mm 2 mps 738 mmHg 81%
    08:00 +12°C° 0 mm 3 mps 738 mmHg 74%
    09:00 +13°C° 0 mm 4 mps 738 mmHg 66%
    10:00 +14°C° 0 mm 5 mps 739 mmHg 58%
    11:00 +15°C° 0 mm 5 mps 738 mmHg 54%
    12:00 +16°C° 0 mm 5 mps 738 mmHg 50%
    13:00 +16°C° 0 mm 5 mps 738 mmHg 47%
    14:00 +16°C° 0 mm 5 mps 738 mmHg 47%
    15:00 +16°C° 0 mm 5 mps 738 mmHg 48%
    16:00 +17°C° 0 mm 4 mps 737 mmHg 49%
    17:00 +15°C° 0 mm 4 mps 738 mmHg 52%
    18:00 +13°C° 0 mm 3 mps 738 mmHg 56%
    19:00 +12°C° 0 mm 3 mps 738 mmHg 60%
    20:00 +12°C° 0 mm 3 mps 739 mmHg 63%
    21:00 +11°C° 0 mm 3 mps 739 mmHg 65%
    22:00 +10°C° 0 mm 3 mps 739 mmHg 68%
    23:00 +10°C° 0 mm 2 mps 739 mmHg 70%

    Day after tomorrow, 23 September, Sunday

    Time Temperature Precipitation Wind Pressure Humidity
    00:00 +9°C° 0 mm 2 mps 739 mmHg 73%
    01:00 +9°C° 0 mm 2 mps 739 mmHg 76%
    02:00 +9°C° 0 mm 2 mps 739 mmHg 78%
    03:00 +8°C° 0 mm 2 mps 739 mmHg 80%
    04:00 +8°C° 0 mm 2 mps 739 mmHg 82%
    05:00 +9°C° 0 mm 2 mps 739 mmHg 80%
    06:00 +9°C° 0 mm 2 mps 740 mmHg 77%
    07:00 +10°C° 0 mm 2 mps 740 mmHg 75%
    08:00 +12°C° 0 mm 2 mps 740 mmHg 70%
    09:00 +13°C° 0 mm 3 mps 740 mmHg 64%
    10:00 +14°C° 0 mm 4 mps 740 mmHg 59%
    11:00 +14°C° 0 mm 4 mps 739 mmHg 59%
    12:00 +14°C° 0 mm 4 mps 739 mmHg 60%
    13:00 +14°C° 0 mm 4 mps 738 mmHg 60%
    14:00 +14°C° 0.1 mm 4 mps 737 mmHg 65%
    15:00 +14°C° 0.1 mm 4 mps 737 mmHg 69%
    16:00 +13°C° 0.1 mm 3 mps 736 mmHg 74%
    17:00 +13°C° 0.1 mm 4 mps 736 mmHg 76%
    18:00 +13°C° 0.1 mm 5 mps 735 mmHg 79%
    19:00 +13°C° 0.1 mm 5 mps 735 mmHg 81%
    20:00 +13°C° 0.1 mm 5 mps 734 mmHg 81%
    21:00 +13°C° 0.1 mm 5 mps 733 mmHg 80%
    22:00 +14°C° 0.1 mm 6 mps 732 mmHg 80%
    23:00 +14°C° 0.2 mm 6 mps 730 mmHg 80%

    24 September, Monday

    Time Temperature Precipitation Wind Pressure Humidity
    00:00 +14°C° 0.2 mm 6 mps 729 mmHg 79%
    01:00 +14°C° 0.2 mm 7 mps 728 mmHg 79%
    02:00 +14°C° 1.1 mm 7 mps 727 mmHg 80%
    03:00 +14°C° 1.1 mm 7 mps 726 mmHg 82%
    04:00 +15°C° 1.1 mm 7 mps 725 mmHg 83%
    05:00 +15°C° 2.7 mm 8 mps 724 mmHg 83%
    06:00 +15°C° 2.7 mm 8 mps 724 mmHg 83%
    07:00 +15°C° 2.7 mm 9 mps 723 mmHg 83%
    08:00 +13°C° 0.3 mm 11 mps 725 mmHg 79%
    09:00 +12°C° 0.3 mm 13 mps 726 mmHg 76%
    10:00 +9°C° 0.3 mm 15 mps 727 mmHg 73%
    11:00 +9°C° 0.1 mm 14 mps 729 mmHg 71%
    12:00 +9°C° 0.1 mm 14 mps 731 mmHg 69%
    13:00 +9°C° 0.1 mm 14 mps 733 mmHg 68%
    14:00 +9°C° 0 mm 13 mps 734 mmHg 64%
    15:00 +9°C° 0 mm 11 mps 735 mmHg 60%
    16:00 +11°C° 0 mm 10 mps 737 mmHg 56%
    17:00 +10°C° 0.1 mm 9 mps 737 mmHg 59%
    18:00 +9°C° 0.1 mm 8 mps 738 mmHg 63%
    19:00 +8°C° 0.1 mm 7 mps 739 mmHg 66%
    20:00 +8°C° 0 mm 6 mps 740 mmHg 70%
    21:00 +7°C° 0 mm 5 mps 741 mmHg 74%
    22:00 +6°C° 0 mm 5 mps 742 mmHg 78%
    23:00 +6°C° 0 mm 5 mps 742 mmHg 78%

    25 September, Tuesday

    Time Temperature Precipitation Wind Pressure Humidity
    00:00 +6°C° 0 mm 5 mps 743 mmHg 78%
    01:00 +5°C° 0 mm 5 mps 744 mmHg 78%
    02:00 +5°C° 0 mm 5 mps 745 mmHg 78%
    03:00 +3°C° 0 mm 5 mps 745 mmHg 78%
    04:00 +3°C° 0 mm 5 mps 746 mmHg 78%
    05:00 +3°C° 0 mm 5 mps 746 mmHg 77%
    06:00 +3°C° 0 mm 5 mps 746 mmHg 77%
    07:00 +5°C° 0 mm 4 mps 747 mmHg 76%
    08:00 +6°C° 0 mm 5 mps 747 mmHg 68%
    09:00 +8°C° 0 mm 5 mps 748 mmHg 60%
    10:00 +9°C° 0 mm 6 mps 748 mmHg 51%
    11:00 +10°C° 0 mm 6 mps 748 mmHg 50%
    12:00 +11°C° 0 mm 6 mps 747 mmHg 48%
    13:00 +11°C° 0 mm 6 mps 747 mmHg 46%
    14:00 +11°C° 0 mm 6 mps 747 mmHg 48%
    15:00 +11°C° 0 mm 6 mps 746 mmHg 49%
    16:00 +11°C° 0 mm 6 mps 746 mmHg 50%
    17:00 +10°C° 0 mm 5 mps 746 mmHg 54%
    18:00 +10°C° 0 mm 4 mps 746 mmHg 58%
    19:00 +7°C° 0 mm 4 mps 746 mmHg 61%
    20:00 +7°C° 0 mm 4 mps 746 mmHg 65%
    21:00 +7°C° 0 mm 4 mps 745 mmHg 69%
    22:00 +7°C° 0 mm 5 mps 745 mmHg 72%
    23:00 +7°C° 0 mm 5 mps 744 mmHg 73%

    26 September, Wednesday

    Time Temperature Precipitation Wind Pressure Humidity
    00:00 +7°C° 0 mm 6 mps 744 mmHg 74%
    01:00 +6°C° 0 mm 7 mps 744 mmHg 76%
    02:00 +7°C° 0.4 mm 6 mps 744 mmHg 79%
    03:00 +7°C° 0.4 mm 6 mps 744 mmHg 83%
    04:00 +7°C° 0.4 mm 6 mps 744 mmHg 86%
    05:00 +7°C° 0.1 mm 5 mps 745 mmHg 87%
    06:00 +7°C° 0.1 mm 4 mps 745 mmHg 88%
    07:00 +7°C° 0.1 mm 4 mps 746 mmHg 88%
    08:00 +8°C° 0 mm 4 mps 746 mmHg 80%
    09:00 +10°C° 0 mm 4 mps 746 mmHg 71%
    10:00 +12°C° 0 mm 4 mps 747 mmHg 63%
    11:00 +12°C° 0 mm 4 mps 747 mmHg 59%
    12:00 +13°C° 0 mm 4 mps 747 mmHg 55%
    13:00 +14°C° 0 mm 4 mps 747 mmHg 51%
    14:00 +14°C° 0 mm 3 mps 747 mmHg 53%
    15:00 +14°C° 0 mm 3 mps 746 mmHg 55%
    16:00 +14°C° 0 mm 3 mps 746 mmHg 57%
    17:00 +13°C° 0 mm 2 mps 746 mmHg 66%
    18:00 +10°C° 0 mm 2 mps 746 mmHg 74%
    19:00 +10°C° 0 mm 1 mps 747 mmHg 82%
    20:00 +9°C° 0 mm 1 mps 747 mmHg 83%
    21:00 +9°C° 0 mm 1 mps 747 mmHg 85%
    22:00 +9°C° 0 mm 1 mps 747 mmHg 86%
    23:00 +8°C° 0 mm 1 mps 747 mmHg 86%
    Show more